Change the Weather History Date:

Saturday, July 13, 2013

  Actual Average (EIDW) Record (EIDW)
Temperature  
Mean Temperature 68 °F -  
Max Temperature 76 °F 64 °F 74 °F (2013)
Min Temperature 58 °F 50 °F 41 °F (2008)
Cooling Degree Days 3    
Growing Degree Days 18 (Base 50)    
Moisture  
Dew Point 61 °F    
Average Humidity 80    
Maximum Humidity 100    
Minimum Humidity 58    
Precipitation  
Precipitation 0.00 in - - ()
Sea Level Pressure  
Sea Level Pressure 30.31 in    
Wind  
Wind Speed 6 mph ()    
Max Wind Speed 9 mph    
Max Gust Speed -    
Visibility 15.0 miles    
Events      
Averages and records for this station are not official NWS values.
T = Trace of Precipitation, MM = Missing Value Source: Averaged Metar Reports

Daily Weather History Graph

Daily Weather History Graph

Search for Another Location

Airport or City:

Trip Planner

Search our weather history database for the weather conditions in past years. The results will help you decide how hot, cold, wet, or windy it might be!

Date:

Astronomy

Jul. 13, 2013 Rise Set
Actual Time 5:14 AM IST 9:47 PM IST
Civil Twilight 4:25 AM IST 10:36 PM IST
Nautical Twilight 3:08 AM IST 11:52 PM IST
Astronomical Twilight 2:03 AM IST 12:59 AM IST
Moon 11:09 AM IST (7/13) 11:24 PM IST (7/13)
Length of Visible Light 18h 11m
Length of Day
16h 33m
Waxing Crescent, 23% of the Moon is Illuminated
Jul 13
Waxing Crescent
Jul 16
First Quarter
Jul 22
Full
Jul 29
Last Quarter
Aug 6
New

Hourly Weather History & Observations

Time (IST) Temp. Dew Point Humidity Pressure Visibility Wind Dir Wind Speed Gust Speed Precip Events Conditions
12:00 AM 63 °F 58 °F 80% 30.27 in 19 mi SW 4.5 mph - -  
1:00 AM 64 °F 61 °F 86% 30.28 in 19 mi SW 8.9 mph - -  
2:00 AM 64 °F 61 °F 87% 30.28 in 19 mi SW 6.7 mph - -  
3:00 AM 62 °F 62 °F 99% 30.28 in 19 mi WSW 4.6 mph - -  
4:00 AM 63 °F 63 °F 100% 30.29 in 19 mi WSW 8.9 mph - -   Clear
5:00 AM 61 °F 61 °F 100% 30.30 in 19 mi West 6.7 mph - -   Scattered Clouds
6:00 AM 60 °F 60 °F 100% 30.30 in 12 mi WSW 6.7 mph - -   Scattered Clouds
7:00 AM 61 °F 61 °F 100% 30.31 in 10 mi West 4.5 mph - -   Scattered Clouds
8:00 AM 63 °F 63 °F 99% 30.32 in 10 mi South 4.5 mph - -   Scattered Clouds
9:00 AM 68 °F 62 °F 77% 30.33 in 10 mi NNE 1.2 mph - -   Scattered Clouds
10:00 AM 71 °F 62 °F 65% 30.32 in 19 mi East 4.5 mph - -   Scattered Clouds
11:00 AM 74 °F 62 °F 58% 30.31 in 22 mi NNE 4.5 mph - -   Scattered Clouds
12:00 PM 75 °F 64 °F 60% 30.32 in 19 mi NNW 4.5 mph - -   Scattered Clouds
1:00 PM 75 °F 64 °F 61% 30.32 in 19 mi NW 6.7 mph - -   Mostly Cloudy
3:00 PM 74 °F 63 °F 61% 30.33 in 16 mi ENE 8.9 mph - -   Partly Cloudy
4:00 PM 74 °F 63 °F 60% 30.32 in 12 mi ENE 8.9 mph - -   Scattered Clouds
5:00 PM 72 °F 64 °F 68% 30.33 in 19 mi East 8.9 mph - -   Scattered Clouds
6:00 PM 69 °F 62 °F 72% 30.33 in 12 mi East 8.9 mph - -   Scattered Clouds
7:00 PM 68 °F 62 °F 74% 30.33 in 12 mi ENE 8.9 mph - -   Scattered Clouds
8:00 PM 66 °F 61 °F 78% 30.32 in 11 mi East 8.9 mph - -   Scattered Clouds
9:00 PM 65 °F 60 °F 78% 30.33 in 12 mi East 3.5 mph - -   Scattered Clouds
10:00 PM 61 °F 58 °F 86% 30.35 in 12 mi ENE 8.9 mph - -   Scattered Clouds
11:00 PM 58 °F 57 °F 94% 30.35 in 11 mi East 4.6 mph - -   Scattered Clouds